User: anonymous   Login
Location: Gleizolles
(44.4833°N, 6.7667°E)
Time: 10:53:28
(UTC+00:00)
Language:

CUTE-I - Orbit

View from above orbital plane
View from above orbital plane
View from above satellite
View from above satellite

Ground track
Ground track

The orbit data is extracted from the following two-line orbital elements,

1 27844U 03031E   22337.59110759  .00000240  00000-0  12713-3 0  9999
2 27844  98.6796 342.7428 0009389 338.2781  21.7998 14.22550101  7928
Epoch (UTC): 03 December 2022 14:11:11
Eccentricity: 0.0009389
inclination: 98.6796°
perigee height: 810 km
apogee height: 823 km
right ascension of ascending node: 342.7428°
argument of perigee: 338.2781°
revolutions per day: 14.22550101
mean anomaly at epoch: 21.7998°
orbit number at epoch: 792

The dashed part of the orbit path shows where the satellite is in the earth's shadow,  

DLR